星链-30782 (STARLINK-30782 )

导读 | 星芒AI

STARLINK-30782 是 SpaceX Starlink 卫星互联网项目中的一颗低轨卫星,属于第三代 Starlink(也称“V1.5”或“Gen2”)卫星。该卫星于2023年发射,旨在为全球提供高速、低延迟的宽带互联网服务。它运行在约550公里高的轨道上,配备先进通信设备和激光链路,以提升网络性能和卫星间通信效率。Starlink 项目致力于改善偏远地区的网络接入,同时支持军事、航空和航海等专业领域应用。

基本信息
目录编号:
58137
目录名称:
STARLINK-30782
国际标识:
2023-162V
轨道中心:
EARTH
卫星名称:
星链-30782
卫星全名:
星链-30782 (STARLINK-30782 )
卫星状态:
在轨 (已飞行789 天)
发射日期:
2023-10-22 UTC
国别 :
美国 (US)
星等 :
--
轨道信息
数据来源 国际轨道数据 AOE轨道数据
星历时间 2025-12-19T07:28:00+0800
19小时前
查看轨道信息
2025-12-14T18:00:00+0800
5天前
查看轨道信息
半长轴 6937.215km 6937.224km
偏心率 0.0001026 0.0001537
轨道倾角 43.001° 43.002°
近地点辐角 275.950° 261.972°
升交点赤经 212.090° 236.872°
平近点角 84.123° 238.060°
近地点 558.366km 558.022km
远地点 559.79km 560.156km
周期 95.838分钟 95.838分钟
每日圈数 15.025366 15.025337
详细信息
固有亮度:
5
最大亮度:
0.3
卫星平台:
Starlink v2.0 mini
覆盖范围:
全球
运营商:
太空探索技术公司
运营商所在国:
美国
制造商(研发单位):
太空探索技术公司
制造商所在国:
美国
使用方式:
暂无
卫星简介
星链(Starlink)计划是由太空探索技术公司(SpaceX)提出的一个巨型低轨卫星互联网星座项目,计划在2019年至2024年间在太空搭建由约1.2万颗卫星组成的“星链”网络,其中1584颗将部署在地球上空550千米处的近地轨道,并从2020年开始工作。该卫星仍在工作。
2D轨道图
3D轨道图
轨道高度分析图
轨道倾角分析图
轨道综合分析图
查看轨道综合分析图